Regional Weather Roundup
Issued by NWS Boston, MA

Current Version | Previous Version | Text Only | Print | Product List | Glossary Off
Versions: 1 2 3 4 5 6 7 8 9 10 11 12 13 14 15 16 17 18 19 20 21 22 23 24 25 26 27
000 ASUS41 KBOX 282210 RWRBOX REGIONAL WEATHER ROUNDUP NATIONAL WEATHER SERVICE TAUNTON MA 600 PM EDT FRI APR 28 2017 NOTE: "FAIR" INDICATES FEW OR NO CLOUDS BELOW 12,000 FEET WITH NO SIGNIFICANT WEATHER AND/OR OBSTRUCTIONS TO VISIBILITY. MAZALL-282300- EASTERN MASSACHUSETTS CITY SKY/WX TMP DP RH WIND PRES REMARKS BOSTON PTSUNNY 81 54 39 W13G22 29.91S BEVERLY SUNNY 82 54 37 W13G20 29.89R LAWRENCE SUNNY 82 44 26 W15G24 29.92R BEDFORD MOSUNNY 82 46 28 W12 29.91R BLUE HILL N/A 79 54 41 W10 29.93S NORWOOD CLOUDY 81 57 43 SW9 29.92R MARSHFIELD SUNNY 81 63 54 SW8 29.92R PLYMOUTH CLOUDY 74 59 59 S9 29.95R TAUNTON SUNNY 77 59 53 S8 29.94R NEW BEDFORD SUNNY 73 60 63 SW15 29.96R $$ MAZALL-282300- CAPE COD AND THE ISLANDS CITY SKY/WX TMP DP RH WIND PRES REMARKS FALMOUTH CLOUDY 70 59 68 MISG 29.99R HYANNIS SUNNY 66 60 81 SW16 29.96R CHATHAM SUNNY 55 52 89 SW12G17 29.98R PROVINCETOWN SUNNY 63 57 81 SW17 29.94S NANTUCKET PTSUNNY 53 49 86 SW10 30.01R FOG MARTHAS VNYRD SUNNY 61 54 77 W8 29.99R $$ MAZALL-282300- CENTRAL AND WESTERN MASSACHUSETTS CITY SKY/WX TMP DP RH WIND PRES REMARKS WORCESTER SUNNY 77 49 37 W14G20 29.98R FITCHBURG SUNNY 84 50 30 SW13 29.94R ORANGE MOSUNNY 80 40 23 NW8 29.95R SPRINGFIELD PTSUNNY 84 47 27 W14 29.92S WESTFIELD MOSUNNY 83 45 26 W10G22 29.93S NORTH ADAMS SUNNY 78 49 35 W10 29.95S PITTSFIELD SUNNY 77 49 37 W10 29.96S $$ RIZALL-282300- RHODE ISLAND CITY SKY/WX TMP DP RH WIND PRES REMARKS PROVIDENCE MOSUNNY 80 61 52 SW16 29.95R NEWPORT SUNNY 67 60 78 SW10G21 29.98R BLOCK ISLAND SUNNY 60 55 83 SW13 30.01R SMITHFIELD MOSUNNY 81 58 45 VRB7 29.95R WESTERLY SUNNY 69 60 73 S8 30.00R $$ CTZALL-282300- CONNECTICUT CITY SKY/WX TMP DP RH WIND PRES REMARKS BRADLEY INTL MOSUNNY 84 47 27 SW10 29.93S HARTFORD SUNNY 81 60 48 S8 29.94R BRIDGEPORT SUNNY 66 57 72 E6 29.97S DANBURY SUNNY 78 52 40 S7 29.97S GROTON SUNNY 63 57 81 S5 29.98R NEW HAVEN MOSUNNY 71 60 68 S7 29.97S CHESTER FAIR 77 59 53 SW8 29.99R MERIDEN SUNNY 80 57 45 S13 29.96R WILLIMANTIC SUNNY 82 56 40 S12 29.96R OXFORD MOSUNNY 79 54 41 SW14G20 29.99R $$ MEZ002-015-021-024-NHZ003-005-008-011-012-014-VTZ005-008-282300- NORTHERN NEW ENGLAND CITY SKY/WX TMP DP RH WIND PRES REMARKS PORTLAND ME MOSUNNY 61 55 81 SE8 29.91R BANGOR ME PTSUNNY 65 58 78 S10 29.89R CONCORD NH SUNNY 81 39 22 W13 29.92R MANCHESTER NH PTSUNNY 83 35 18 W15G21 29.90R NASHUA NH SUNNY 81 43 26 W7G17 29.93R PORTSMOUTH NH PTSUNNY 74 60 61 S6 29.88S JAFFREY NH SUNNY 78 32 18 W9G23 29.97R KEENE NH MOSUNNY 79 35 20 NW9 29.95R BURLINGTON VT MOSUNNY 79 34 19 W9 29.90R MT. WASHINGTON MOSUNNY 46 39 76 W40 N/A $$ NYZ052-076-282300- EASTERN NEW YORK CITY SKY/WX TMP DP RH WIND PRES REMARKS ALBANY PTSUNNY 77 50 38 N8 29.96S NEW YORK CITY MOSUNNY 80 55 42 S12G24 29.97R $$ ANZALL-282300- MARINE OBSERVATIONS STATION/POSITION TIME TEMP WIND PRES VSBY WAVE AIR SEA DIR/SP/G HT/PER (UTC) (F) (DEG/KT/KT) (MB) (MI) (FT/S) BOSTON BUOY 2050 57 50 110/ 6/ 8 1013.1 3/ 9 BUZZARDS BAY 2100 51 210/ 14/ 15 1015.3R NANTUCKET SOUND 2150 47 1015.2R 1/10 MASS BAY-STELLWA 2104 54 47 160/ 8/ 10 1012.3F 3/ 8 ISLE OF SHOALS 2200 59 150/ 14/ 15 1011.9F S OF BLOCK IS 2155 49 N/A 5/ 8 $$ ......................KEY......................... SKY/WX - SKY CONDITION/PRESENT WEATHER TMP - TEMPERATURE IN FAHRENHEIT DWPT - DEWPOINT IN FAHRENHEIT RH - RELATIVE HUMIDITY IN PERCENT WIND - DIRECTION AND SPEED IN MPH PRES - MEAN SEA LEVEL PRESSURE IN INCHES OF HG WCI - WIND CHILL INDEX VSB - VISIBILITY IN MILES HX - HEAT INDEX TC - TEMPERATURE IN CELSIUS VRB - VARIABLE WIND DIRECTION N/A - NOT AVAILABLE

USA.gov is the U.S. government's official web portal to all federal, state and local government web resources and services.